Location: Bégole
(43.1574°N, 0.3291°E)
Time: 13:36:16
(UTC+00:00)

NOSS 3-4 (A) - Pass Details

Date: 28 January 2023
Orbit: 835 x 1377 km, 63.4° (Epoch: 19 March)

Event Time Altitude Azimuth Distance (km) Brightness Sun altitude
Rises 17:36:01 0° 324° (NW) 3,789 6.8 -6.1°
Reaches altitude 10° 17:38:31 10° 327° (NNW) 2,907 6.2 -6.5°
Maximum altitude 17:45:30 73° 52° (NE) 1,229 3.9 -7.7°
Drops below altitude 10° 17:53:26 10° 137° (SE) 3,281 6.0 -9.1°
Sets 17:56:24 0° 139° (SE) 4,304 6.6 -9.6°
